User: anonymous   Login
Location: Unspecified
(0.0000°N, 0.0000°E)
Time: 01:33:29
(UTC+00:00)
Language:

POSAT 1 - Orbit

View from above orbital plane
View from above orbital plane
View from above satellite
View from above satellite

Ground track
Ground track

The orbit data is extracted from the following two-line orbital elements,

1 22829U 93061G   17117.86557285 +.00000012 +00000-0 +21989-4 0  9991
2 22829 098.7959 084.4430 0010826 070.4174 341.7815 14.30965908230666
Epoch (UTC): 27 April 2017 20:46:25
Eccentricity: 0.0010826
inclination: 98.7959°
perigee height: 781 km
apogee height: 796 km
right ascension of ascending node: 84.4430°
argument of perigee: 70.4174°
revolutions per day: 14.30965908
mean anomaly at epoch: 341.7815°
orbit number at epoch: 23066

The dashed part of the orbit path shows where the satellite is in the earth's shadow,  

DLR